This is the latest recevied weather packets stored in our database for station/object EA3DJ-10. If no packets are shown the sender has not sent any weather packets the latest 10 day(s).
| Time | Temp. | Humidity | Pressure | Rain* | Wind** | Luminosity | Snow |
|---|---|---|---|---|---|---|---|
| 1788080368 | 27.78° C | 45% | 1019.4 hPa | - | - | - | - |
| 1788079168 | 27.78° C | 44% | 1019.4 hPa | - | - | - | - |
| 1788077968 | 27.22° C | 45% | 1019.3 hPa | - | - | - | - |
| 1788076767 | 27.22° C | 45% | 1019.1 hPa | - | - | - | - |
| 1788075567 | 27.22° C | 45% | 1019.1 hPa | - | - | - | - |
| 1788074367 | 27.22° C | 45% | 1019.1 hPa | - | - | - | - |
| 1788073167 | 27.22° C | 45% | 1018.9 hPa | - | - | - | - |
| 1788071967 | 27.22° C | 45% | 1019 hPa | - | - | - | - |
| 1788070767 | 27.22° C | 46% | 1018.7 hPa | - | - | - | - |
| 1788069567 | 27.22° C | 45% | 1018.6 hPa | - | - | - | - |
| 1788068367 | 27.22° C | 46% | 1018.5 hPa | - | - | - | - |
| 1788067167 | 27.78° C | 46% | 1018.5 hPa | - | - | - | - |
| 1788065966 | 27.78° C | 46% | 1018.4 hPa | - | - | - | - |
| 1788064766 | 27.78° C | 46% | 1018.5 hPa | - | - | - | - |
| 1788063566 | 27.78° C | 45% | 1018.6 hPa | - | - | - | - |
| 1788062366 | 27.78° C | 45% | 1018.5 hPa | - | - | - | - |
| 1788061166 | 27.78° C | 44% | 1018.5 hPa | - | - | - | - |
| 1788059966 | 27.78° C | 43% | 1018.5 hPa | - | - | - | - |
| 1788058766 | 28.33° C | 44% | 1018.5 hPa | - | - | - | - |
| 1788057566 | 28.33° C | 43% | 1018.5 hPa | - | - | - | - |
| 1788056366 | 28.33° C | 43% | 1018.6 hPa | - | - | - | - |
| 1788055165 | 28.33° C | 43% | 1018.8 hPa | - | - | - | - |
| 1788053964 | 28.89° C | 41% | 1018.8 hPa | - | - | - | - |
| 1788052764 | 31.67° C | 34% | 1018.7 hPa | - | - | - | - |
| 1788051564 | 30.56° C | 35% | 1018.7 hPa | - | - | - | - |
* Rain since midnight (hover to see other rain measurements)
** Current wind speed in m/s (hover to see current wind gust speed)